Weather in Solihull

United Kingdom     52°25′40″N   1°47′52″W
temp.,
°C
wind,
m/s
gust,
m/s
humid.,
%
clouds,
%
prec.,
mm/h
press.,
hPa
HPBL,
m
17 april, sat
sat1701:00+3ese13755 0.0 103196
04:00+2ene11785 0.0 103113
07:00+2e12775 0.0 103157
10:00+7ene125548 0.0 1031631
13:00+11e224245 0.0 10291373
16:00+12e22385 0.0 10271631
19:00+10ese22475 0.0 1027630
22:00+6se247089 0.0 1028127
18 april, sun
sun1801:00+3se247378 0.0 1027118
04:00+3se1171100 0.0 102637
07:00+3s1172100 0.0 102651
10:00+8sse1158100 0.0 1026446
13:00+11sse1146100 0.0 10251238
16:00+13se214291 0.0 10231665
19:00+11ese2254100 0.0 1023561
22:00+8ese236494 0.0 1024104
19 april, mon
mon1901:00+5ese24685 0.0 1024111
04:00+3e23765 0.0 102369
07:00+3e12762 0.0 102374
10:00+9ese23603 0.0 1022562
13:00+13se235029 0.0 10211362
16:00+13se325299 0.0 10201543
19:00+11sse2363100 0.0 1020224
22:00+10sse1163100 0.0 102030
20 april, tue
tue2001:00+10se1165100 0.0 102014
04:00+9nw0069100 0.0 101915
07:00+9nnw1272100 0.0 101973
10:00+10nw1266100 0.0 1020236
13:00+12nw3357100 0.0 1020835
16:00+13nnw3353100 0.0 10201333
19:00+12n2461100 0.1 1021648
22:00+9n3777100 0.1 1022316
21 april, wed
wed2101:00+8ne4982100 0.2 1024484
04:00+7ne3787100 0.0 1024392
07:00+6ne377889 0.0 1025407
10:00+9ene35505 0.0 1026793
13:00+13ene334349 0.0 10261516
16:00+14e22408 0.0 10251799
19:00+12e225062 0.0 1025818
22:00+7sse37695 0.0 1027248